Location: *
(34.6903°N, 135.5184°E)
Time: 13:21:45
(UTC+00:00)

Cosmos 1680 Rocket - Pass Details

Date: 22 September 2019
Orbit: 760 x 780 km, 74.1° (Epoch: 20 October)

Event Time Altitude Azimuth Distance (km) Brightness Sun altitude
Exits shadow 19:11:02 - 189° (S) 2,401 5.8 -20.1°
Reaches altitude 10° 19:11:17 10° 189° (S) 2,305 5.7 -20.1°
Maximum altitude 19:16:29 73° 105° (ESE) 802 3.7 -19.1°
Drops below altitude 10° 19:21:42 10° 21° (NNE) 2,306 6.4 -18.0°
Sets 19:24:05 0° 20° (NNE) 3,233 7.2 -17.5°
